Weather History for Rutland, VT

Change the Weather History Date:

Wednesday, April 24, 2013

  Actual Average Record
Temperature  
Mean Temperature 55 °F -  
Max Temperature 73 °F - 80 °F (2001)
Min Temperature 36 °F - 24 °F (1993)
Degree Days  
Heating Degree Days 10    
Month to date heating degree days 555  
Since 1 July heating degree days 6478  
Cooling Degree Days 0    
Month to date cooling degree days 0  
Year to date cooling degree days 0  
Growing Degree Days 4 (Base 50)    
Moisture  
Dew Point 38 °F    
Average Humidity 62    
Maximum Humidity 100    
Minimum Humidity 23    
Precipitation  
Precipitation 0.00 in - 0.90 in (1970)
Month to date precipitation 1.89  
Year to date precipitation 4.51  
Sea Level Pressure  
Sea Level Pressure 29.89 in    
Wind  
Wind Speed 6 mph (South)    
Max Wind Speed 14 mph    
Max Gust Speed 22 mph    
Visibility 10 miles    
Events      
T = Trace of Precipitation, MM = Missing Value Source: NWS Daily Summary

Daily Weather History Graph

Daily Weather History Graph

Search for Another Location

Airport:

Trip Planner

Search our weather history database for the weather conditions in past years. The results will help you decide how hot, cold, wet, or windy it might be!

Date:

Astronomy

Apr. 24, 2013 Rise Set
Actual Time 5:54 AM EDT 7:46 PM EDT
Civil Twilight 5:23 AM EDT 8:16 PM EDT
Nautical Twilight 4:46 AM EDT 8:54 PM EDT
Astronomical Twilight 4:05 AM EDT 9:35 PM EDT
Moon 6:45 PM EDT (4/24) 4:58 AM EDT (4/24)
Length of Visible Light 14h 52m
Length of Day
13h 51m
Waxing Gibbous, 98% of the Moon is Illuminated
Apr 24
Waxing Gibbous
Apr 25
Full
May 2
Last Quarter
May 9
New
May 18
First Quarter

Hourly Weather History & Observations

Time (EDT) Temp. Windchill Dew Point Humidity Pressure Visibility Wind Dir Wind Speed Gust Speed Precip Events Conditions
12:15 AM 39.2 °F 37.0 °F 35.6 °F 87% 30.14 in 10.0 mi WSW 3.5 mph - N/A   Overcast
12:35 AM 39.2 °F 34.2 °F 35.6 °F 87% 30.14 in 10.0 mi South 6.9 mph - N/A   Overcast
12:55 AM 39.2 °F 34.2 °F 35.6 °F 87% 30.13 in 10.0 mi East 6.9 mph - N/A   Overcast
1:15 AM 39.2 °F 35.9 °F 35.6 °F 87% 30.12 in 10.0 mi SE 4.6 mph - N/A   Overcast
1:35 AM 39.2 °F 33.6 °F 35.6 °F 87% 30.11 in 10.0 mi ESE 8.1 mph - N/A   Overcast
1:55 AM 39.2 °F 35.0 °F 35.6 °F 87% 30.10 in 10.0 mi ESE 5.8 mph - N/A   Overcast
2:35 AM 39.2 °F 35.9 °F 35.6 °F 87% 30.08 in 10.0 mi SSE 4.6 mph - N/A   Overcast
2:55 AM 41.0 °F 35.8 °F 37.4 °F 87% 30.07 in 10.0 mi SSE 8.1 mph - N/A   Overcast
3:15 AM 41.0 °F 39.0 °F 37.4 °F 87% 30.06 in 10.0 mi SSW 3.5 mph - N/A   Overcast
3:35 AM 42.8 °F 41.1 °F 37.4 °F 81% 30.07 in 10.0 mi South 3.5 mph - N/A   Overcast
3:55 AM 39.2 °F 35.0 °F 37.4 °F 93% 30.07 in 10.0 mi ESE 5.8 mph - N/A   Overcast
4:15 AM 39.2 °F 34.2 °F 35.6 °F 87% 30.05 in 10.0 mi ESE 6.9 mph - N/A   Overcast
4:35 AM 39.2 °F 35.9 °F 37.4 °F 93% 30.04 in 10.0 mi ESE 4.6 mph - N/A   Overcast
5:15 AM 39.2 °F - 37.4 °F 93% 30.03 in 10.0 mi Calm Calm - N/A   Clear
5:35 AM 39.2 °F 35.9 °F 37.4 °F 93% 30.03 in 10.0 mi SSE 4.6 mph - N/A   Partly Cloudy
5:55 AM 37.4 °F - 33.8 °F 87% 30.04 in 10.0 mi Calm Calm - N/A   Partly Cloudy
6:15 AM 35.6 °F - 33.8 °F 93% 30.04 in 10.0 mi Calm Calm - N/A   Mostly Cloudy
6:35 AM 37.4 °F 34.9 °F 35.6 °F 93% 30.05 in 10.0 mi SW 3.5 mph - N/A   Overcast
6:55 AM 35.6 °F 31.7 °F 35.6 °F 100% 30.04 in 10.0 mi SSE 4.6 mph - N/A   Mostly Cloudy
7:35 AM 37.4 °F 32.8 °F 35.6 °F 93% 30.04 in 10.0 mi SSE 5.8 mph - N/A   Partly Cloudy
7:55 AM 42.8 °F 40.1 °F 37.4 °F 81% 30.03 in 10.0 mi South 4.6 mph - N/A   Clear
8:15 AM 42.8 °F - 37.4 °F 81% 30.02 in 10.0 mi Calm Calm - N/A   Clear
8:35 AM 44.6 °F 43.1 °F 39.2 °F 81% 30.02 in 10.0 mi South 3.5 mph - N/A   Clear
8:55 AM 46.4 °F - 39.2 °F 76% 30.01 in 10.0 mi Calm Calm - N/A   Clear
9:15 AM 46.4 °F - 39.2 °F 76% 29.99 in 10.0 mi Calm Calm - N/A   Clear
9:55 AM 51.8 °F - 39.2 °F 62% 29.96 in 10.0 mi Calm Calm - N/A   Clear
10:15 AM 53.6 °F - 39.2 °F 58% 29.95 in 10.0 mi Calm Calm - N/A   Clear
10:35 AM 55.4 °F - 39.2 °F 54% 29.95 in 10.0 mi Calm Calm - N/A   Clear
10:55 AM 55.4 °F - 39.2 °F 54% 29.94 in 10.0 mi SW 6.9 mph - N/A   Clear
11:15 AM 57.2 °F - 42.8 °F 59% 29.93 in 10.0 mi ENE 8.1 mph - N/A   Clear
11:35 AM 59.0 °F - 39.2 °F 48% 29.92 in 7.0 mi SSW 5.8 mph - N/A   Clear
11:55 AM 60.8 °F - 39.2 °F 45% 29.91 in 3.0 mi Calm Calm - N/A   Clear
12:35 PM 62.6 °F - 37.4 °F 39% 29.88 in 10.0 mi West 5.8 mph - N/A   Clear
12:55 PM 64.4 °F - 37.4 °F 37% 29.86 in 4.0 mi Calm Calm - N/A   Clear
1:15 PM 64.4 °F - 35.6 °F 34% 29.83 in 10.0 mi West 3.5 mph - N/A   Clear
1:35 PM 66.2 °F - 35.6 °F 32% 29.82 in 5.0 mi West 5.8 mph - N/A   Clear
1:55 PM 69.8 °F - 32.0 °F 25% 29.79 in 9.0 mi WSW 6.9 mph - N/A   Clear
2:15 PM 69.8 °F - 33.8 °F 27% 29.79 in 6.0 mi SSW 3.5 mph - N/A   Clear
2:35 PM 69.8 °F - 33.8 °F 27% 29.78 in 10.0 mi WSW 4.6 mph - N/A   Clear
3:15 PM 71.6 °F - 35.6 °F 27% 29.77 in 10.0 mi WSW 6.9 mph - N/A   Scattered Clouds
3:35 PM 73.4 °F - 33.8 °F 23% 29.76 in 10.0 mi SSW 13.8 mph 21.9 mph N/A   Scattered Clouds
4:15 PM 73.4 °F - 33.8 °F 23% 29.74 in 10.0 mi SSW 13.8 mph 21.9 mph N/A   Scattered Clouds
4:35 PM 73.4 °F - 33.8 °F 23% 29.74 in 10.0 mi SW 5.8 mph - N/A   Clear
4:55 PM 73.4 °F - 35.6 °F 25% 29.74 in 10.0 mi West 9.2 mph - N/A   Scattered Clouds
5:15 PM 73.4 °F - 35.6 °F 25% 29.74 in 10.0 mi WSW 8.1 mph 17.3 mph N/A   Mostly Cloudy
5:35 PM 73.4 °F - 35.6 °F 25% 29.73 in 10.0 mi SW 9.2 mph - N/A   Mostly Cloudy
5:55 PM 73.4 °F - 35.6 °F 25% 29.73 in 10.0 mi SW 6.9 mph - N/A   Mostly Cloudy
6:15 PM 73.4 °F - 35.6 °F 25% 29.72 in 10.0 mi WSW 5.8 mph - N/A   Overcast
6:35 PM 71.6 °F - 37.4 °F 29% 29.72 in 10.0 mi SW 4.6 mph - N/A   Overcast
6:55 PM 71.6 °F - 39.2 °F 31% 29.72 in 10.0 mi West 4.6 mph - N/A   Mostly Cloudy
7:15 PM 69.8 °F - 39.2 °F 33% 29.72 in 10.0 mi West 3.5 mph - N/A   Mostly Cloudy
7:55 PM 66.2 °F - 41.0 °F 40% 29.71 in 10.0 mi ESE 4.6 mph - N/A   Partly Cloudy
8:15 PM 64.4 °F - 41.0 °F 42% 29.70 in 10.0 mi ESE 6.9 mph - N/A   Clear
8:35 PM 64.4 °F - 41.0 °F 42% 29.70 in 10.0 mi SE 6.9 mph - N/A   Clear
8:55 PM 62.6 °F - 42.8 °F 48% 29.70 in 10.0 mi SSE 6.9 mph - N/A   Scattered Clouds
9:15 PM 66.2 °F - 42.8 °F 43% 29.72 in 10.0 mi South 5.8 mph - N/A   Overcast
9:35 PM 66.2 °F - 42.8 °F 43% 29.72 in 10.0 mi South 10.4 mph - N/A   Overcast
9:55 PM 66.2 °F - 42.8 °F 43% 29.72 in 10.0 mi South 12.7 mph 16.1 mph N/A   Overcast
10:55 PM 64.4 °F - 44.6 °F 49% 29.70 in 10.0 mi South 8.1 mph - N/A   Overcast
11:15 PM 64.4 °F - 44.6 °F 49% 29.70 in 10.0 mi SSE 9.2 mph - N/A   Overcast
11:35 PM 64.4 °F - 46.4 °F 52% 29.68 in 10.0 mi South 9.2 mph - N/A   Overcast
11:55 PM 64.4 °F - 46.4 °F 52% 29.69 in 10.0 mi South 8.1 mph - N/A   Overcast